Simultaneous Nadir Overpasses (SNOs) Predictions

Prediction of SNOs between AQUA and METOP-A Satellite Orbit:

Table of predicted SNOs for the next 14.0 days since TLE Epoch: 1/23/2015
Index Date (AQUA) Time (AQUA) Lat,Lon (AQUA) SZA (AQUA ) Date (METOP-A) Time (METOP-A) Lat,Lon (METOP-A) SZA (METOP-A ) Distance(km) Time Diff (sec)
1 01/24/2015 22:31:52 73.78,-163.58 92.97 01/24/2015 22:31:25 73.81,-163.58 93.01 3.82 27
2 01/24/2015 23:21:19 -73.85, 3.89 86.97 01/24/2015 23:22:05 -73.88, 3.91 86.94 3.37 46
3 01/27/2015 17:16:30 -73.18, 96.48 88.37 01/27/2015 17:15:23 -73.16, 94.00 88.27 79.81 67
4 01/27/2015 18:06:10 73.84, -97.27 92.33 01/27/2015 18:05:50 73.82, -97.17 92.31 3.54 20
5 01/27/2015 18:55:35 -73.85, 70.33 87.67 01/27/2015 18:56:30 -73.84, 70.21 87.68 3.82 55
6 01/30/2015 12:50:52 -73.53, 162.20 88.74 01/30/2015 12:49:41 -73.47, 161.07 88.74 36.15 71
7 01/30/2015 13:40:25 73.82, -30.80 91.57 01/30/2015 13:40:14 73.82, -30.77 91.57 0.92 11
8 01/30/2015 14:29:52 -73.89, 136.69 88.38 01/30/2015 14:30:54 -73.90, 136.74 88.38 1.71 62
9 02/02/2015 08:25:12 -73.75,-131.84 89.29 02/02/2015 08:24:00 -73.77,-131.84 89.26 1.86 72
10 02/02/2015 09:14:41 73.84, 35.61 90.80 02/02/2015 09:14:39 73.82, 35.62 90.78 1.92 2
11 02/02/2015 10:04:08 -73.90,-156.89 89.15 02/02/2015 10:05:19 -73.90,-156.87 89.17 0.85 71
12 02/05/2015 03:59:27 -73.74, -65.38 90.13 02/05/2015 03:58:25 -73.76, -65.46 90.10 3.24 62
13 02/05/2015 04:48:56 73.83, 102.06 89.96 02/05/2015 04:49:04 73.81, 101.99 89.94 3.05 8




NCC Satellite Simultaneous Nadir Overpasses (SNOs) Prediction Service
